sat.trackr.live / text

‹ back to catalog

STARLINK-35165

NORAD 65750 · 2025-216S

PAYLOAD ACTIVE UNKNOWN

§ Identity

Operator
Country
US
Launch date
2025-09-25
Launch site
AFETR
Launch vehicle
Mass (kg)
RCS (m²)

Purposes: comms

External: N2YO · Heavens-Above · Gunter

§ Orbital elements

Epoch: 2026-05-24T19:59:04.355520Z

Period
94.11 min
Inclination
53.1595°
Eccentricity
0.0001162
Mean motion
15.30197094 rev/d
Perigee alt
474.4 km
Apogee alt
476.0 km
Semi-major
6,853.4 km
B*
8.8264e-4
RAAN
339.0579°
Arg perigee
97.0369°
Mean anomaly
263.0764°
Rev number
3,817

§ Raw data

STARLINK-351651 65750U 25216S   26144.83268930  .00025871  00000+0  88264-3 0  99982 65750  53.1595 339.0579 0001162  97.0369 263.0764 15.30197094 38179

JSON: /api/v1/satellites/65750 · /tle

For live sub-satellite position, see the globe view (requires WebGL).

§ Visibility from observer

Set your observer location to see the next 7 days of passes ≥ 10°. The values pass through the URL so the page stays shareable.

No JS? Fill the form by hand. The geolocation button needs JavaScript.